Tracking 35237 objects as of 5-Sep-2026
HD Live streaming from Space Station
objects crossing your sky now

M-5 DEB


M-5 DEB is no longer on orbit


NORAD ID: 25857
Int'l Code: 1997-005D
Launch date: February 12, 1997
Source: Japan (JPN)
Launch site: KAGOSHIMA SPACE CENTER UNIVERSITY OF TOKYO (KSCUT)
Decay date: 1999-07-25

Note: This is SATELLITE DEBRIS
Your satellite tracking list
Your tracking list is empty




NASA's NSSDC Master Catalog

Two Line Element Set (TLE):
1 25857U 97005D   99193.51446536 +.00101356 -33303-5 +10000-3 0  9991
2 25857 031.1921 299.9425 1033212 261.2337 087.0313 13.92339847000665
Source of the keplerian elements: AFSPC